Thursday, July 31, 2014
23:47 UTC
  |  Log In   |  Register Free
Airport Search:

Faribault Municipal Airport
(KFBL)

Faribault Municipal Airport Diagram
No Airport Diagram Available

FAA data valid effective July 24, 2014 until September 18, 2014 (unless otherwise noted).

 
 
 
 
 
 
 
 
 
 
 
 
 
 

Current Aviation Weather for Faribault Municipal Airport (KFBL)

The most recent METAR observation for KFBL was updated at: 1834 UTC
METAR Summary (Translated METAR)
KFBL
281834Z AUTO 31005KT 10SM SCT050 BKN070 23/09 A3020 RMK AO2
KOWA
(12.5 nm SE from KFBL)
281835Z AUTO 34006KT 10SM BKN060 OVC070 21/12 A3020 RMK AO2
TAF
No TAF information found within 50 nm of KFBL
  Airport Weather Conditions for KFBL

 Current Weather at FBL
82° F
Fair
West winds at 8.1 mph
FBL NOAA Radar

Pressure: 30.02 in
Humidity: 30%
Wind: West at 8.1 MPH (7 KT)
Dew Point: 48.2°F
Visibility: 10.00 mi


Airport Weather Forecast for KFBL

Translated METAR and TAF for KFBL
Translated METAR for KFBL (2341 UTC 31 July 2014)
found at http://aviationweather.gov/adds/metars/
 
METAR text: KFBL 312334Z AUTO 26004KT 10SM CLR 27/09 A3002 RMK AO2
Conditions at: KFBL (FARIBAULT MUNI , MN, US) observed 2334 UTC 31 July 2014
Temperature: 27.0°C (81°F)
Dewpoint: 9.0°C (48°F) [RH = 32%]
Pressure (altimeter): 30.02 inches Hg (1016.7 mb)
Winds: from the W (260 degrees) at 5 MPH (4 knots; 2.1 m/s)
Visibility: 10 or more miles (16+ km)
Ceiling: at least 12,000 feet AGL
Clouds: sky clear below 12,000 feet AGL
Weather: automated observation with no human augmentation;
there may or may not be significant weather present at this time
Translated TAF for KFBL

There is no translated TAF available for this airport

Find All Airport Services Find A Hotel Find A Rental Car Find A Golf Course Find A Restaurant $100 Hamburger



FBO's on the Field
FBO Company Facility Photos Services Transportation Aviation Fuel Prices: Prices include tax
Catering Weather Repair Courtesy Rental Type 100LL JetA JetA+ MOGAS 8087
 
Quality Aviation

This FBO has not yet been rated
FS:Independent
Last Updated: Jul-16
Login to update fuel prices
SS:
Contact Quality AviationMore FBO Information
 
Add another FBO Facility Photos Catering Weather Repair Courtesy Rental Type 100LL JetA JetA+ MOGAS 8087
Services Transportation Aviation Fuel Prices: Prices include tax


GlobalAir.com Airport Resource Center model-print
model-print
model-print
model-print